Location: Zagreb
(45.8000°N, 16.0000°E)
Time: 14:27:46
(UTC+02:00)

Tiros 1 despin weight - Pass Details

Date: 16 August 2022
Orbit: 590 x 639 km, 48.2° (Epoch: 23 September)

Event Time Altitude Azimuth Distance (km) Brightness Sun altitude
Rises 17:47:07 0° 284° (WNW) 2,828 ? 22.4°
Reaches altitude 10° 17:49:54 10° 267° (W) 1,919 ? 21.9°
Maximum altitude 17:53:03 19° 221° (SW) 1,401 ? 21.4°
Drops below altitude 10° 17:56:11 10° 175° (S) 1,908 ? 20.8°
Sets 17:58:57 0° 158° (SSE) 2,806 ? 20.3°
